Regional Weather Roundup
Issued by NWS

Home | Current Version | Previous Version | Graphics & Text | Print | Product List | Glossary On
Versions: 1 2 3 4 5 6 7 8 9 10 11 12 13 14 15 16 17 18 19 20 21 22 23 24 25 26 27 28 29 30 31 32 33 34 35 36 37 38 39 40 41 42 43 44 45 46 47 48 49 50
000
ASUS43 KMKX 211021
RWRWI

WISCONSIN REGIONAL WEATHER ROUNDUP
NATIONAL WEATHER SERVICE MILWAUKEE/SULLIVAN WI
500 AM CDT SAT OCT 21 2017

NOTE: "FAIR" INDICATES FEW OR NO CLOUDS BELOW 12,000 FEET WITH NO
SIGNIFICANT WEATHER AND/OR OBSTRUCTIONS TO VISIBILITY.

WIZ001-002-006>008-014>016-023>028-211100-
NORTHWEST WISCONSIN

CITY           SKY/WX    TMP DP  RH WIND       PRES   REMARKS
SUPERIOR ARPT  LGT RAIN  63  52  67 S8        29.69S
ASHLAND        CLOUDY    64  46  52 S10G20    29.74F
HAYWARD        PTCLDY    62  47  57 S10       29.75F
SIREN          CLOUDY    63  49  61 S16G25    29.71S
CUMBERLAND     CLOUDY    59  46  63 S10       29.75F
RICE LAKE      CLOUDY    61  48  63 SE9G16    29.77F
CHETEK         CLOUDY    60  49  65 SE13      29.77F
LADYSMITH      CLOUDY    60  46  60 SE7       29.82F
EAU CLAIRE     CLOUDY    61  48  62 SE10      29.78F
MENOMONIE      CLEAR     63  50  62 SE9       29.77S
NEW RICHMOND   CLOUDY    61  49  64 S13G21    29.72F
OSCEOLA        CLOUDY    62  51  67 SE10      29.74S
$$

WIZ003>005-009-010-017-018-211100-
NORTH CENTRAL WISCONSIN

CITY           SKY/WX    TMP DP  RH WIND       PRES   REMARKS
MANITOWISH WTR CLOUDY    58  46  63 S12       29.84S
ARBOR VITAE    CLOUDY    62  47  58 S12       29.86S
WOODRUFF       CLOUDY    62  47  58 S12       29.86S
RHINELANDER    CLOUDY    60  45  57 S9        29.89S
EAGLE RIVER    NOT AVBL
LAND O LAKES   CLOUDY    60  44  55 S7        29.88F
PHILLIPS       MOCLDY    58  46  63 S10       29.83S
TOMAHAWK       CLOUDY    57  45  63 S3        29.88S
MEDFORD        CLOUDY    58  46  63 SE10      29.86S
MERRILL        CLOUDY    60  46  58 S6        29.89S
$$

WIZ029-030-035-036-043>047-211100-
CENTRAL WISCONSIN

CITY           SKY/WX    TMP DP  RH WIND       PRES   REMARKS
WAUSAU         PTCLDY    60  46  59 S9        29.88S
MOSINEE        PTCLDY    55  45  67 SE9       29.91S
MARSHFIELD     CLOUDY    58  45  62 S9        29.87F
STEVENS POINT  CLOUDY    58  45  60 S8        29.91S
WAUPACA        CLOUDY    61  47  61 SE6       29.94R
WAUTOMA        NOT AVBL
WISC RAPIDS    PTCLDY    61  47  59 S8        29.91S
CAMP DOUGLAS   CLEAR     62  49  63 S10G18    29.88S
$$

WIZ011>013-019>022-031-037>040-048>050-211100-
NORTHEAST WISCONSIN

CITY           SKY/WX    TMP DP  RH WIND       PRES   REMARKS
ANTIGO         MOCLDY    51  46  82 SE8       29.93R
SHAWANO        CLOUDY    63  47  55 S3        29.93S
OCONTO         CLOUDY    62  47  59 S5        29.94S
STURGEON BAY   CLOUDY    58  50  75 S12       29.97S
GREEN BAY      CLOUDY    62  49  62 S9        29.95F
MANITOWOC      CLOUDY    56  50  80 S6        29.99S
APPLETON       MOCLDY    61  43  51 S8        29.94F
CLINTONVILLE   PTCLDY    59  46  63 S7        29.93S
OSHKOSH        CLOUDY    59  49  69 S12       29.94F
$$

WIZ032>034-041-042-053>061-211100-
SOUTHWEST WISCONSIN

CITY           SKY/WX    TMP DP  RH WIND       PRES   REMARKS
LA CROSSE      PTCLDY    65  51  60 S15       29.83S
SPARTA         CLEAR     62  50  63 S12       29.86F
VIROQUA        PTCLDY    59  50  72 S12       29.88S
BOSCOBEL       PTCLDY    63  50  62 S7        29.90F
PRAIRIE DU CHI PTCLDY    64  49  57 SE10G18   29.87S
PLATTEVILLE    MOCLDY    61  51  70 S12       29.93S
$$

WIZ056-057-062-063-064-067-068-211100-
SOUTH CENTRAL WISCONSIN

CITY           SKY/WX    TMP DP  RH WIND       PRES   REMARKS
REEDSBURG      CLOUDY    62  49  64 S13       29.91S
BARABOO/DELLS  CLOUDY    60  47  63 S13       29.92S
LONE ROCK      PTCLDY    61  51  70 VRB3      29.92S
MINERAL POINT  PTCLDY    61  52  72 SE10      29.94S
MADISON        MOCLDY    59  50  72 S8        29.96F
MIDDLETON      MOCLDY    61  50  66 S9        29.96R
WATERTOWN      CLOUDY    60  50  70 S7        29.98S
MONROE         MOCLDY    59  48  67 S12       29.97S
JANESVILLE     MOCLDY    61  48  63 SE6       29.99S
$$

WIZ051-052-058>065-066-070>072-211100-
SOUTHEAST WISCONSIN

CITY           SKY/WX    TMP DP  RH WIND       PRES   REMARKS
MILWAUKEE      CLOUDY    64  49  57 S9        30.02R
WAUKESHA       CLOUDY    59  45  58 S5        30.02S
MILWAUKEE/TIMM CLOUDY    63  43  48 S8        30.02S
RACINE         CLOUDY    64  49  57 S8        30.04S
BURLINGTON     PTCLDY    61  51  68 S10       30.02S
KENOSHA        CLOUDY    63  49  60 S10       30.04R
FOND DU LAC    CLOUDY    62  46  55 S12       29.96S
SHEBOYGAN      CLOUDY    59  50  72 S9        29.99S
WEST BEND      CLOUDY    61  45  55 S6        30.00S
JUNEAU         MOCLDY    58  48  68 SE9       29.98F
$$

LSZ147-162-211100-
LAKE SUPERIOR

STATION/POSITION TIME  TEMP    WIND        PRES    WAVE
                       AIR SEA DIR/SP/G            HT/PER
                 (UTC) (F)     (DEG/KT/KT) (MB)    (FT/S)
W MID LAKE BUOY  0950   58 52              1007.5F   2/ 4
DEVILS ISLAND    1000   64     170/  5/  8 1006.7F
PORT WING        0840          170/ 14/ 22 1006.1F
SAXON HARBOR     0940   67     200/ 11/ 16 1006.8F
$$

LMZ867-665-643>646-211100-
LAKE MICHIGAN

STATION/POSITION TIME  TEMP    WIND        PRES    WAVE
                       AIR SEA DIR/SP/G            HT/PER
                 (UTC) (F)     (DEG/KT/KT) (MB)    (FT/S)
S GREEN BAY BUOY 1000   61 58  170/ 10/ 12 1014.1
N MID LAKE BUOY  0950   61 58  180/ 17/ 21 1015.6R   5/ 6
NORTHPORT PIER   0940   58     170/  6/ 11 1014.9S
KEWAUNEE LAKESHO 0954   53     190/ 10/ 12 1014.5F
SHEBOYGAN LAKESH 1000   58     190/ 12/ 13 1015.5R
PORT WASHINGTON  0930   57     180/  5/  7 1016.9R
ATWATER BUOY     0909   58 53  150/  8/ 10 1016.4S
MILWAUKEE LAKESH 1000   60     160/  7/  8   N/A
S MID LAKE BUOY  0950   62 61  180/ 14/ 17 1017.8R   2/ 4
KENOSHA   LAKESH 1000   61     180/ 10/ 12 1016.9
$$

TC  - TEMPERATURE IN CELSIUS
VSB - VISIBILITY IN STATUTE MILES
WCI - WIND CHILL INDEX
HX  - HEAT INDEX





USA.gov is the U.S. government's official web portal to all federal, state and local government web resources and services.